timeIndex;NC;ALTRO;BUS;MERCI;PERSONE;areac
2013-01-01;4747;395;1198;1622;66224;0
2013-01-02;5542;1335;1572;9684;78947;0
2013-01-03;6210;1555;1580;11295;87912;0
2013-01-04;6607;1591;1539;11467;94696;0
2013-01-05;6732;972;1537;5230;110091;0
2013-01-06;6219;386;1307;2436;101129;0
2013-01-07;6966;1730;2321;12728;89686;1
2013-01-08;7479;1978;2328;14066;98249;1
2013-01-09;7782;1834;2289;14226;100995;1
2013-01-10;8436;1879;2382;14669;109757;1
2013-01-11;8982;1904;2314;14586;114086;1
2013-01-12;9042;1142;1813;6662;142357;0
2013-01-13;8531;382;1409;2777;111926;0
2013-01-14;15561;1586;1976;13353;103540;1
2013-01-15;16505;1844;2148;14077;109819;1
2013-01-16;16415;1753;2050;13837;111459;1
2013-01-17;16785;1807;2097;13848;112567;1
2013-01-18;16641;1800;2048;13406;112168;1
2013-01-19;19318;1021;1316;5843;121238;0
2013-01-20;19301;390;1026;2075;88912;0
2013-01-21;8467;1736;2058;13785;104436;1
2013-01-22;9101;1908;2213;14519;110662;1
2013-01-23;9884;1798;2302;14583;114020;1
2013-01-24;10044;1786;2222;14779;118731;1
2013-01-25;10212;1852;2310;14214;117548;1
2013-01-26;8890;1108;1655;6423;134290;0
2013-01-27;7341;390;1442;2384;109664;0
2013-01-28;14451;1597;2084;13021;102881;1
2013-01-29;18308;1795;2276;13506;102502;1
2013-01-30;20776;1634;2354;13325;103160;1
2013-01-31;24686;1667;2292;13092;104615;1
2013-02-01;28671;1628;2170;11628;97483;1
2013-02-02;39162;763;1167;4170;86341;0
2013-02-03;33480;266;924;1486;67268;0
2013-02-04;9115;1637;2207;13707;100712;1
2013-02-05;15022;1883;2395;14015;104436;1
2013-02-06;12386;1825;2505;14224;112567;1
2013-02-07;11117;1907;2452;14743;120720;1
2013-02-08;11006;1976;2587;14655;117007;1
2013-02-09;9524;1119;1811;6319;129335;0
2013-02-10;7852;368;1492;2499;107025;0
2013-02-11;8909;1627;2255;12517;86375;1
2013-02-12;9534;1788;2360;12469;94799;1
2013-02-13;10655;1787;2428;14583;107695;1
2013-02-14;11157;1824;2332;14534;113241;1
2013-02-15;10828;1855;2425;13923;105363;1
2013-02-16;9072;1056;1798;6151;116697;0
2013-02-17;7766;452;1556;2487;102201;0
2013-02-18;10299;1665;2424;14230;100570;1
2013-02-19;11214;1936;2484;15087;111099;1
2013-02-20;13046;1813;2471;15140;116975;1
2013-02-21;13259;1836;2363;14833;126334;1
2013-02-22;13609;1852;2342;14417;123564;1
2013-02-23;14604;1009;1744;6608;141300;0
2013-02-24;11245;430;1267;2658;110851;0
2013-02-25;16056;1758;2147;13037;104745;1
2013-02-26;22793;1750;2099;13058;99444;1
2013-02-27;23581;1651;2396;12999;102771;1
2013-02-28;24718;1667;2330;13447;108316;1
2013-03-01;24584;1710;2456;12842;103972;1
2013-03-02;26692;925;1666;5573;112011;0
2013-03-03;22790;345;1398;2144;96550;0
2013-03-04;19269;1623;2367;13464;97992;1
2013-03-05;23539;1688;2501;13625;102347;1
2013-03-06;21966;1614;2334;13236;110829;1
2013-03-07;22242;1665;2163;13373;114855;1
2013-03-08;21874;1735;2168;13427;112884;1
2013-03-09;21226;999;1601;5801;124042;0
2013-03-10;19467;367;1285;2230;100378;0
2013-03-11;12467;1589;2304;14204;103164;1
2013-03-12;10587;1884;2544;15082;113784;1
2013-03-13;10765;1806;2628;14779;115094;1
2013-03-14;11021;1905;2717;15095;119410;1
2013-03-15;11163;1814;2720;14812;117011;1
2013-03-16;11265;1150;2062;6655;135673;0
2013-03-17;9938;363;1775;1881;79490;0
2013-03-18;15334;1460;2229;13121;103744;1
2013-03-19;18810;1707;2379;14232;102541;1
2013-03-20;19882;1580;2313;14034;110485;1
2013-03-21;20913;1559;2380;14328;113219;1
2013-03-22;25280;1762;1905;14973;148398;0
2013-03-23;23674;928;1600;6051;126345;0
2013-03-24;16322;306;1125;2260;88689;0
2013-03-25;24044;1487;1929;13011;96421;1
2013-03-26;24904;1670;2082;13853;102831;1
2013-03-27;23935;1642;2027;13799;106297;1
2013-03-28;22758;1633;1837;13839;104998;1
2013-03-29;18561;1495;1886;11885;81572;1
2013-03-30;14731;772;1449;4114;79611;0
2013-03-31;10662;254;1206;1658;63707;0
2013-04-01;8565;376;1371;2010;72795;1
2013-04-02;13147;1521;2172;12821;81340;1
2013-04-03;16225;1719;2315;14338;94154;1
2013-04-04;17652;1779;2228;15344;111750;1
2013-04-05;17633;1758;2253;15388;117286;1
2013-04-06;16035;1096;1819;7195;133092;0
2013-04-07;11492;382;1294;2188;64267;0
2013-04-08;18092;1603;2210;15338;113844;0
2013-04-09;19518;1841;2351;15098;118548;1
2013-04-10;20568;1814;2520;14699;120948;1
2013-04-11;21578;1741;2598;14641;127429;1
2013-04-12;21031;1766;2473;14504;128146;1
2013-04-13;18829;1227;1804;6458;140306;0
2013-04-14;14251;347;1530;2674;114265;0
2013-04-15;16856;1613;2245;14705;96913;1
2013-04-16;17430;1849;2512;15177;102469;1
2013-04-17;18017;1749;2351;14290;105266;1
2013-04-18;18871;1804;2487;14722;112479;1
2013-04-19;31727;1625;2000;12791;100271;1
2013-04-20;31733;865;1269;5098;113072;0
2013-04-21;25034;288;1058;2028;88105;0
2013-04-22;24977;1419;2009;12707;99484;1
2013-04-23;17961;1864;2506;14970;108888;1
2013-04-24;19507;1809;2272;14505;105037;1
2013-04-25;13062;475;1431;2658;74147;1
2013-04-26;12833;1507;1766;9276;69699;1
2013-04-27;13973;941;1872;4828;94324;0
2013-04-28;13021;347;1480;1969;83129;0
2013-04-29;16972;1458;2192;12540;90629;1
2013-04-30;18990;1827;2480;13971;100296;1
2013-05-01;14995;445;858;2625;96429;0
2013-05-02;19590;1646;2514;13435;95759;1
2013-05-03;19984;1822;2657;13674;99328;1
2013-05-04;18044;1063;1958;5854;117685;0
2013-05-05;13897;388;1617;2311;99115;0
2013-05-06;19739;1622;2307;13688;101736;1
2013-05-07;21470;1824;2510;14455;104206;1
2013-05-08;20720;1722;2525;14266;106709;1
2013-05-09;20410;1775;2497;14927;116749;1
2013-05-10;19357;1790;2417;14390;122177;1
2013-05-11;16569;1168;1879;6622;133537;0
2013-05-12;9861;425;1690;1954;69166;0
2013-05-13;16368;1674;2255;13760;95223;1
2013-05-14;17049;1879;2485;14466;102099;1
2013-05-15;17505;1762;2470;14688;109690;1
2013-05-16;18043;1761;2367;14618;122779;1
2013-05-17;17451;1810;2356;14501;113816;1
2013-05-18;15194;1124;1815;6160;130193;0
2013-05-19;12254;396;1555;2419;105996;0
2013-05-20;16603;1599;2355;13913;100698;1
2013-05-21;22418;1852;2281;14509;102211;1
2013-05-22;24688;1655;2062;13653;102744;1
2013-05-23;23387;1653;2217;13660;106807;1
2013-05-24;19558;1664;2428;13907;116397;1
2013-05-25;11202;1107;1920;6195;130742;0
2013-05-26;7939;430;1495;2377;104103;0
2013-05-27;12299;1724;2376;14023;99676;1
2013-05-28;13064;1927;2456;14985;109414;1
2013-05-29;15580;1864;2318;14687;114615;0
2013-05-30;14263;1875;2383;15264;118438;1
2013-05-31;15438;1915;2472;14531;110673;1
2013-06-01;13097;1115;1910;6096;120129;0
2013-06-02;10390;460;1489;2267;97292;0
2013-06-03;10762;1719;2075;14479;110642;1
2013-06-04;10541;1981;2433;15257;107783;1
2013-06-05;10958;1841;2309;15049;111886;1
2013-06-06;14666;1812;2329;14684;114218;1
2013-06-07;10537;1885;2411;14950;109253;1
2013-06-08;7932;1121;1996;6282;116329;0
2013-06-09;6337;441;1651;1729;68695;0
2013-06-10;10198;1658;2104;14320;100439;1
2013-06-11;10872;1824;2252;14823;104711;1
2013-06-12;12764;1759;2240;15011;107238;1
2013-06-13;20958;1777;2161;14486;104042;1
2013-06-14;27477;1732;1801;14281;119082;0
2013-06-15;25084;980;1625;5342;91574;0
2013-06-16;22480;301;1226;1758;66630;0
2013-06-17;26637;1452;1923;12641;85569;1
2013-06-18;26566;1730;1907;13614;93206;1
2013-06-19;28755;1599;1989;13248;95157;1
2013-06-20;28301;1608;2017;13659;100774;1
2013-06-21;27164;1680;2019;13234;95348;1
2013-06-22;23561;980;1926;5608;95773;0
2013-06-23;18982;353;1592;2182;83257;0
2013-06-24;17238;1574;2430;13940;97445;1
2013-06-25;17974;1794;2406;14403;101277;1
2013-06-26;17699;1661;2270;14438;101670;1
2013-06-27;18463;1731;2282;14838;107555;1
2013-06-28;16260;1658;2458;14024;99428;1
2013-06-29;8633;1045;1824;6282;104980;0
2013-06-30;10123;359;1421;2198;79698;0
2013-07-01;19143;1563;1961;13122;84581;1
2013-07-02;21251;1718;1873;13885;89347;1
2013-07-03;22335;1669;2003;13974;94207;1
2013-07-04;22589;1612;2023;13989;98162;1
2013-07-05;20750;1747;1948;13644;89583;1
2013-07-06;14168;978;1678;5553;92736;0
2013-07-07;11376;346;1365;2014;77367;0
2013-07-08;13015;1606;1979;14009;91509;1
2013-07-09;16511;1766;2113;14197;97213;1
2013-07-10;9635;1729;2013;15118;106754;1
2013-07-11;9550;1716;2052;14883;107052;1
2013-07-12;8982;1715;2146;14717;98796;1
2013-07-13;9523;1004;1771;5722;93612;0
2013-07-14;7988;339;1521;2065;75962;0
2013-07-15;14628;1507;2017;13672;88718;1
2013-07-16;12759;1638;2095;14688;98992;1
2013-07-17;9508;1674;2073;14997;102635;1
2013-07-18;15471;1687;2035;14702;101159;1
2013-07-19;20992;1606;1943;13217;86261;1
2013-07-20;13984;950;1736;5244;82450;0
2013-07-21;10466;292;1385;1861;68248;0
2013-07-22;19904;1393;1925;12900;80529;1
2013-07-23;15430;1581;2052;14008;92888;1
2013-07-24;12775;1559;2014;14473;97732;1
2013-07-25;13054;1459;2130;14430;100659;1
2013-07-26;11644;1560;2048;14244;90354;1
2013-07-27;8097;884;1849;5699;83898;0
2013-07-28;6258;320;1624;2043;66751;0
2013-07-29;11304;1375;2037;13557;85583;1
2013-07-30;14610;1443;1988;13955;84265;1
2013-07-31;14385;1444;2006;13510;85539;1
2013-08-01;12827;1399;1996;13324;85829;1
2013-08-02;10010;1512;2034;13009;77330;1
2013-08-03;8656;816;1802;5131;72277;0
2013-08-04;9669;255;1323;1524;47596;0
2013-08-05;7779;1190;1948;10997;60356;1
2013-08-06;7563;1237;2053;11101;60511;1
2013-08-07;8021;1207;1988;10690;59725;1
2013-08-08;7686;1124;1951;10084;61149;1
2013-08-09;6956;1068;2033;9393;53110;1
2013-08-10;5848;588;1858;3768;52862;0
2013-08-11;7437;306;1426;1718;41205;0
2013-08-12;6590;858;1887;6839;49018;0
2013-08-13;8191;874;1729;6534;47882;0
2013-08-14;8125;821;1647;5796;48777;0
2013-08-15;6234;268;1385;1400;37635;0
2013-08-16;7122;621;1653;3678;40192;0
2013-08-17;6630;438;1713;2528;41074;0
2013-08-18;5837;220;1418;1354;37467;0
2013-08-19;7709;1049;1746;6975;49577;0
2013-08-20;9151;1082;1850;7186;49811;0
2013-08-21;9300;990;1835;7346;51118;0
2013-08-22;9760;923;1893;7462;52571;0
2013-08-23;8738;1054;1790;7383;56483;0
2013-08-24;6119;687;1782;3500;56124;0
2013-08-25;6486;280;1359;1772;55708;0
2013-08-26;7105;1425;2173;9855;58422;1
2013-08-27;9367;1512;2072;10666;61655;1
2013-08-28;17711;1221;1716;9335;54579;1
2013-08-29;18533;1181;1763;9751;60789;1
2013-08-30;16173;1333;1805;10047;62318;1
2013-08-31;9132;950;1705;4827;82882;0
2013-09-01;8070;442;1418;2002;76654;0
2013-09-02;11121;1661;1831;12874;78825;1
2013-09-03;12280;1793;1848;13730;85734;1
2013-09-04;12040;1659;1901;13929;91055;1
2013-09-05;11845;1691;2024;14229;98117;1
2013-09-06;12151;1830;2061;13979;94515;1
2013-09-07;10970;1109;1754;5829;105904;0
2013-09-08;9047;366;1382;2204;93942;0
2013-09-09;11717;1616;2054;14060;93697;1
2013-09-10;12785;1852;2118;15168;103097;1
2013-09-11;12242;1819;2094;15188;107644;1
2013-09-12;12809;1695;2060;15090;111863;1
2013-09-13;12222;1668;2100;14946;106733;1
2013-09-14;10551;1040;1607;6439;117513;0
2013-09-15;8826;356;1400;2480;105104;0
2013-09-16;12075;1668;2118;15231;104052;1
2013-09-17;13922;1934;2120;15923;116806;1
2013-09-18;19408;1740;2034;15547;111900;1
2013-09-19;19953;1714;2095;15301;116238;1
2013-09-20;17526;1798;2221;15286;116239;1
2013-09-21;17144;1086;1779;6914;128882;0
2013-09-22;5267;33;107;174;8815;0
2013-09-23;20415;1611;2160;13921;100288;1
2013-09-24;20980;1749;2188;14849;101870;1
2013-09-25;21116;1715;2074;14531;104023;1
2013-09-26;21918;1683;2182;14739;107929;1
2013-09-27;22690;1738;2206;14561;106399;1
2013-09-28;46035;790;1263;4368;83699;0
2013-09-29;4674;31;90;151;8142;0
2013-09-30;11850;1660;2100;14914;103559;1
2013-10-01;12347;1815;2139;15201;105397;1
2013-10-02;12708;1749;2116;14737;107445;1
2013-10-03;14064;1847;2156;15281;113975;1
2013-10-04;13181;1889;2216;15181;114674;1
2013-10-05;11317;1069;1635;6381;134308;0
2013-10-06;9446;407;1323;2411;105005;0
2013-10-07;13622;1664;2031;14458;105060;1
2013-10-08;14373;1877;2159;15415;108070;1
2013-10-09;14934;1767;2133;15217;109178;1
2013-10-10;16244;1764;2524;15444;119168;1
2013-10-11;15880;1873;2252;15777;114969;1
2013-10-12;22749;1040;1404;6918;128797;0
2013-10-13;30160;152;460;803;35363;0
2013-10-14;14653;1661;1993;15051;98802;1
2013-10-15;15472;1786;2167;15528;103722;1
2013-10-16;15689;1789;2127;15052;105386;1
2013-10-17;12752;1816;2231;15376;112494;1
2013-10-18;14909;1935;1874;16102;140883;0
2013-10-19;11343;1158;1720;6766;134691;0
2013-10-20;9060;421;1394;2564;108943;0
2013-10-21;12057;1684;2095;14402;102159;1
2013-10-22;12853;1881;2216;15330;110308;1
2013-10-23;13632;1807;2206;15177;115598;1
2013-10-24;13836;1728;2102;15153;119054;1
2013-10-25;13123;1810;2106;15118;114695;1
2013-10-26;11276;1103;1590;7047;133668;0
2013-10-27;8892;401;1404;2555;109187;0
2013-10-28;11535;1625;2033;14657;98975;1
2013-10-29;13049;1810;2111;15206;109228;1
2013-10-30;34927;1448;1431;12156;73430;1
2013-10-31;43980;584;486;4980;35547;1
2013-11-01;28034;118;403;1012;29275;1
2013-11-02;30189;253;458;1447;30340;0
2013-11-03;27474;73;424;683;28938;0
2013-11-04;18221;1615;1868;13850;98740;1
2013-11-05;18347;1811;1940;14903;100634;1
2013-11-06;18118;1705;1977;14498;101617;1
2013-11-07;19164;1747;1960;15076;109359;1
2013-11-08;20845;1766;1927;14325;113119;1
2013-11-09;20401;1054;1418;6429;131264;0
2013-11-10;15644;327;1167;2390;104715;0
2013-11-11;16168;1530;1913;14328;97573;1
2013-11-12;16914;1762;1915;14762;103213;1
2013-11-13;15308;1696;2003;14882;108614;1
2013-11-14;12678;1721;2131;15437;119775;1
2013-11-15;13085;1878;2075;15365;125051;1
2013-11-16;12762;1056;1534;6403;135425;0
2013-11-17;10179;357;1265;2461;112675;0
2013-11-18;13508;1642;1844;14227;104169;1
2013-11-19;14167;1748;2072;14780;113648;1
2013-11-20;14645;1815;2114;15172;114203;1
2013-11-21;15526;1677;2000;15004;121786;1
2013-11-22;14914;1719;2064;15111;120827;1
2013-11-23;13873;1050;1563;6622;141536;0
2013-11-24;10398;377;1317;2745;114595;0
2013-11-25;11864;1587;2024;14360;102187;1
2013-11-26;12706;1878;2019;15427;109250;1
2013-11-27;12377;1768;1936;15446;113848;1
2013-11-28;13125;1817;2020;15651;121405;1
2013-11-29;12909;1897;1965;15636;120960;1
2013-11-30;11426;1075;1550;7143;139303;0
2013-12-01;8704;414;1259;2846;116601;0
2013-12-02;11342;1656;1990;14533;103431;1
2013-12-03;11833;1907;2058;15257;110947;1
2013-12-04;14871;1801;2008;15792;114898;1
2013-12-05;21179;1793;1926;15325;115224;1
2013-12-06;21164;1770;1894;15143;115884;0
2013-12-07;17498;1007;1537;5838;115509;0
2013-12-08;15138;433;1515;2730;107740;0
2013-12-09;18729;1585;1914;14396;101456;1
2013-12-10;17385;1963;2021;14971;111304;1
2013-12-11;13234;1726;2041;15374;118062;1
2013-12-12;13604;1808;1988;15616;127026;1
2013-12-13;13694;1847;1996;15489;127103;1
2013-12-14;11391;1200;1590;7139;147354;0
2013-12-15;9572;495;1408;2909;129951;0
2013-12-16;13827;1833;1914;16082;135510;0
2013-12-17;13412;2042;2025;16248;124908;1
2013-12-18;13980;1888;2050;16520;131928;1
2013-12-19;17077;1836;1979;16215;143933;1
2013-12-20;17697;1945;1794;16231;143921;1
2013-12-21;11871;1186;1524;6990;142914;0
2013-12-22;9121;583;1267;2697;120129;0
2013-12-23;11763;1679;1422;14135;129283;0
2013-12-24;9165;1295;1407;8137;114607;0
2013-12-25;7064;331;612;1304;72630;0
2013-12-26;6972;370;938;1643;67875;0
2013-12-27;11234;1280;1394;8691;99240;0
2013-12-28;9850;907;1478;4348;87518;0
2013-12-29;8806;379;1222;1928;78091;0
2013-12-30;14048;1355;1190;8589;76281;0
2013-12-31;13784;1062;1234;5697;73948;0
